sat.trackr.live / text

‹ back to catalog

STARLINK-11324 [DTC]

NORAD 61879 · 2024-204F

PAYLOAD ACTIVE UNKNOWN

§ Identity

Operator
Country
US
Launch date
2024-11-09
Launch site
AFWTR
Launch vehicle
Mass (kg)
RCS (m²)

Purposes: comms

External: N2YO · Heavens-Above · Gunter

§ Orbital elements

Epoch: 2026-09-21T20:36:17.652096Z

Period
91.74 min
Inclination
53.1588°
Eccentricity
0.0000913
Mean motion
15.69705867 rev/d
Perigee alt
359.1 km
Apogee alt
360.4 km
Semi-major
6,737.9 km
B*
6.0933e-6
RAAN
109.3340°
Arg perigee
102.4578°
Mean anomaly
257.6542°
Rev number
10,772

§ Raw data

STARLINK-11324 [DTC]1 61879U 24204F   26264.85853764  .00000150  00000+0  60933-5 0  99902 61879  53.1588 109.3340 0000913 102.4578 257.6542 15.69705867107725

JSON: /api/v1/satellites/61879 · /tle

For live sub-satellite position, see the globe view (requires WebGL).

§ Visibility from observer

Set your observer location to see the next 7 days of passes ≥ 10°. The values pass through the URL so the page stays shareable.

No JS? Fill the form by hand. The geolocation button needs JavaScript.